Simultaneous Nadir Overpasses (SNOs) Predictions

Prediction of SNOs between GOES-17 and NOAA-19 Satellite Orbit:

Table of predicted SNOs for the next 14.0 days since TLE Epoch: 5/30/2025
Index Date Time (GOES-17) GOES-17 Lat,Lon NOAA-19 Lat,Lon Distance(km) Time Diff (sec)
1 06/01/2025 04:55:24 -0.02,-104.38 -0.50,-106.51 243.37 80
2 06/02/2025 04:40:06 -0.02,-104.38 0.17,-103.44 106.59 80
3 06/03/2025 04:27:28 -0.02,-104.38 0.90,-100.38 456.63 80
4 06/04/2025 16:58:37 0.01,-104.44 0.79,-107.87 390.65 80
5 06/05/2025 16:45:59 0.01,-104.44 0.07,-104.80 40.51 80
6 06/06/2025 16:36:01 0.01,-104.45 -0.59,-101.73 309.74 80
7 06/09/2025 04:54:42 -0.00,-104.40 -0.39,-106.20 204.87 80
8 06/10/2025 04:39:24 0.00,-104.40 0.29,-103.13 145.09 80
9 06/11/2025 04:26:46 0.00,-104.40 0.98,-100.06 494.99 80
10 06/12/2025 16:57:56 -0.01,-104.45 0.70,-107.55 354.10 80
11 06/13/2025 16:45:17 -0.01,-104.45 0.03,-104.48 5.05 80
